Time,TemperatureF,DewpointF,PressureIn,WindDirection,WindDirectionDegrees,WindSpeedMPH,WindSpeedGustMPH,Humidity,HourlyPrecipIn,Conditions,Clouds,dailyrainin,SolarRadiationWatts/m^2,SoftwareType,DateUTC
2013-07-02 00:00:00,76.3,52.7,29.85,SSW,207,0.0,3.0,44,0.00,,,0.00,0001,Weather View 32 v70,2013-07-02 07:00:00,
2013-07-02 00:05:00,76.0,52.4,29.85,SSW,207,0.0,3.0,44,0.00,,,0.00,0002,Weather View 32 v70,2013-07-02 07:05:00,
2013-07-02 00:10:00,75.8,52.3,29.85,South,184,0.0,3.0,44,0.00,,,0.00,0001,Weather View 32 v70,2013-07-02 07:10:00,
2013-07-02 00:15:00,75.5,52.6,29.85,SE,139,0.0,3.0,45,0.00,,,0.00,0001,Weather View 32 v70,2013-07-02 07:15:00,
2013-07-02 00:20:00,75.2,52.3,29.85,SSW,207,0.0,3.0,45,0.00,,,0.00,0002,Weather View 32 v70,2013-07-02 07:20:00,
2013-07-02 00:30:00,74.6,52.4,29.85,South,184,0.0,3.0,46,0.00,,,0.00,0001,Weather View 32 v70,2013-07-02 07:30:00,
2013-07-02 00:35:00,74.2,52.6,29.85,South,184,0.0,3.0,47,0.00,,,0.00,0002,Weather View 32 v70,2013-07-02 07:35:00,
2013-07-02 00:40:00,74.1,53.1,29.84,South,184,0.0,3.0,48,0.00,,,0.00,0001,Weather View 32 v70,2013-07-02 07:40:00,
2013-07-02 00:45:00,73.9,52.9,29.84,SE,139,0.0,3.0,48,0.00,,,0.00,0001,Weather View 32 v70,2013-07-02 07:45:00,
2013-07-02 00:55:00,73.5,53.1,29.86,WSW,252,0.0,3.0,49,0.00,,,0.00,0001,Weather View 32 v70,2013-07-02 07:55:00,
2013-07-02 01:00:00,73.5,53.1,29.85,SSE,162,0.0,3.0,49,0.00,,,0.00,0001,Weather View 32 v70,2013-07-02 08:00:00,
2013-07-02 01:05:00,73.5,53.1,29.85,ESE,117,0.0,3.0,49,0.00,,,0.00,0001,Weather View 32 v70,2013-07-02 08:05:00,
2013-07-02 01:10:00,73.8,53.9,29.85,WNW,297,2.0,3.0,50,0.00,,,0.00,0002,Weather View 32 v70,2013-07-02 08:10:00,
2013-07-02 01:15:00,74.1,54.2,29.84,NW,319,3.0,4.0,50,0.00,,,0.00,0001,Weather View 32 v70,2013-07-02 08:15:00,
2013-07-02 01:25:00,74.3,53.8,29.85,SSE,162,0.0,4.0,49,0.00,,,0.00,0001,Weather View 32 v70,2013-07-02 08:25:00,
2013-07-02 01:30:00,74.2,53.8,29.84,South,184,0.0,4.0,49,0.00,,,0.00,0001,Weather View 32 v70,2013-07-02 08:30:00,
2013-07-02 01:35:00,73.9,53.5,29.85,SE,139,0.0,4.0,49,0.00,,,0.00,0001,Weather View 32 v70,2013-07-02 08:35:00,
2013-07-02 01:40:00,73.5,54.2,29.84,South,184,4.0,4.0,51,0.00,,,0.00,0001,Weather View 32 v70,2013-07-02 08:40:00,
2013-07-02 01:50:00,73.5,54.2,29.84,ESE,117,0.0,4.0,51,0.00,,,0.00,0001,Weather View 32 v70,2013-07-02 08:50:00,
2013-07-02 01:55:00,73.3,54.0,29.84,WNW,297,0.0,4.0,51,0.00,,,0.00,0002,Weather View 32 v70,2013-07-02 08:55:00,
2013-07-02 02:00:00,73.4,54.1,29.83,NE,49,0.0,4.0,51,0.00,,,0.00,0001,Weather View 32 v70,2013-07-02 09:00:00,
2013-07-02 02:05:00,73.4,54.1,29.83,SE,139,0.0,4.0,51,0.00,,,0.00,0002,Weather View 32 v70,2013-07-02 09:05:00,
2013-07-02 02:15:00,72.9,53.7,29.83,SE,139,1.0,4.0,51,0.00,,,0.00,0001,Weather View 32 v70,2013-07-02 09:15:00,
2013-07-02 02:20:00,72.5,53.8,29.84,SSW,207,0.0,4.0,52,0.00,,,0.00,0001,Weather View 32 v70,2013-07-02 09:20:00,
2013-07-02 02:25:00,72.5,53.8,29.83,SSW,207,0.0,4.0,52,0.00,,,0.00,0001,Weather View 32 v70,2013-07-02 09:25:00,
2013-07-02 02:30:00,72.6,53.9,29.84,ESE,117,0.0,4.0,52,0.00,,,0.00,0001,Weather View 32 v70,2013-07-02 09:30:00,
2013-07-02 02:35:00,72.5,54.3,29.83,West,274,1.0,4.0,53,0.00,,,0.00,0002,Weather View 32 v70,2013-07-02 09:35:00,
2013-07-02 02:45:00,73.0,54.8,29.83,SSW,207,0.0,3.0,53,0.00,,,0.00,0001,Weather View 32 v70,2013-07-02 09:45:00,
2013-07-02 02:50:00,73.0,54.8,29.83,SSW,207,0.0,3.0,53,0.00,,,0.00,0001,Weather View 32 v70,2013-07-02 09:50:00,
2013-07-02 02:55:00,73.0,54.8,29.83,SSW,207,0.0,3.0,53,0.00,,,0.00,0001,Weather View 32 v70,2013-07-02 09:55:00,
2013-07-02 03:05:00,72.1,54.5,29.83,SSE,162,0.0,3.0,54,0.00,,,0.00,0002,Weather View 32 v70,2013-07-02 10:05:00,
2013-07-02 03:10:00,72.0,54.9,29.83,SW,229,0.0,3.0,55,0.00,,,0.00,0002,Weather View 32 v70,2013-07-02 10:10:00,
2013-07-02 03:15:00,72.0,54.9,29.82,West,274,1.0,3.0,55,0.00,,,0.00,0001,Weather View 32 v70,2013-07-02 10:15:00,
2013-07-02 03:20:00,72.1,55.0,29.83,WNW,297,1.0,3.0,55,0.00,,,0.00,0001,Weather View 32 v70,2013-07-02 10:20:00,
2013-07-02 03:25:00,72.1,55.0,29.83,South,184,0.0,3.0,55,0.00,,,0.00,0002,Weather View 32 v70,2013-07-02 10:25:00,
2013-07-02 03:35:00,71.9,54.8,29.83,South,184,0.0,3.0,55,0.00,,,0.00,0001,Weather View 32 v70,2013-07-02 10:35:00,
2013-07-02 03:40:00,71.2,54.7,29.83,South,184,0.0,3.0,56,0.00,,,0.00,0001,Weather View 32 v70,2013-07-02 10:40:00,
2013-07-02 03:45:00,71.0,55.0,29.83,West,274,1.0,3.0,57,0.00,,,0.00,0002,Weather View 32 v70,2013-07-02 10:45:00,
2013-07-02 03:50:00,71.4,55.3,29.83,NNE,27,0.0,3.0,57,0.00,,,0.00,0002,Weather View 32 v70,2013-07-02 10:50:00,
2013-07-02 03:55:00,71.5,55.4,29.82,WSW,252,3.0,4.0,57,0.00,,,0.00,0001,Weather View 32 v70,2013-07-02 10:55:00,
2013-07-02 04:05:00,70.4,54.4,29.83,SE,139,3.0,4.0,57,0.00,,,0.00,0002,Weather View 32 v70,2013-07-02 11:05:00,
2013-07-02 04:10:00,70.3,55.3,29.84,SE,139,1.0,4.0,59,0.00,,,0.00,0001,Weather View 32 v70,2013-07-02 11:10:00,
2013-07-02 04:15:00,70.5,55.9,29.84,SSE,162,1.0,4.0,60,0.00,,,0.00,0001,Weather View 32 v70,2013-07-02 11:15:00,
2013-07-02 04:20:00,70.7,55.6,29.84,SSE,162,0.0,4.0,59,0.00,,,0.00,0002,Weather View 32 v70,2013-07-02 11:20:00,
2013-07-02 04:30:00,70.4,56.3,29.84,NE,49,0.0,4.0,61,0.00,,,0.00,0002,Weather View 32 v70,2013-07-02 11:30:00,
2013-07-02 04:40:00,70.1,56.0,29.84,SW,229,0.0,4.0,61,0.00,,,0.00,0001,Weather View 32 v70,2013-07-02 11:40:00,
2013-07-02 04:45:00,70.1,56.0,29.85,SSE,162,0.0,4.0,61,0.00,,,0.00,0001,Weather View 32 v70,2013-07-02 11:45:00,
2013-07-02 04:50:00,69.8,55.7,29.85,SSW,207,0.0,4.0,61,0.00,,,0.00,0001,Weather View 32 v70,2013-07-02 11:50:00,
2013-07-02 05:00:00,69.8,55.7,29.84,WSW,252,1.0,4.0,61,0.00,,,0.00,0001,Weather View 32 v70,2013-07-02 12:00:00,
2013-07-02 05:05:00,69.8,55.7,29.84,SSW,207,0.0,4.0,61,0.00,,,0.00,0001,Weather View 32 v70,2013-07-02 12:05:00,
2013-07-02 05:10:00,69.7,56.1,29.84,WSW,252,0.0,3.0,62,0.00,,,0.00,0001,Weather View 32 v70,2013-07-02 12:10:00,
2013-07-02 05:15:00,69.7,56.1,29.84,West,274,0.0,3.0,62,0.00,,,0.00,0001,Weather View 32 v70,2013-07-02 12:15:00,
2013-07-02 05:25:00,69.8,56.2,29.84,WSW,252,1.0,3.0,62,0.00,,,0.00,0002,Weather View 32 v70,2013-07-02 12:25:00,
2013-07-02 05:30:00,69.7,56.1,29.84,NNW,342,0.0,3.0,62,0.00,,,0.00,0002,Weather View 32 v70,2013-07-02 12:30:00,
2013-07-02 05:35:00,69.8,56.2,29.84,ENE,72,0.0,3.0,62,0.00,,,0.00,0002,Weather View 32 v70,2013-07-02 12:35:00,
2013-07-02 05:45:00,68.6,55.5,29.85,SE,139,2.0,3.0,63,0.00,,,0.00,0003,Weather View 32 v70,2013-07-02 12:45:00,
2013-07-02 05:50:00,68.7,56.4,29.85,SSE,162,1.0,4.0,65,0.00,,,0.00,0005,Weather View 32 v70,2013-07-02 12:50:00,
2013-07-02 05:55:00,68.8,56.1,29.85,SSE,162,0.0,4.0,64,0.00,,,0.00,0007,Weather View 32 v70,2013-07-02 12:55:00,
2013-07-02 06:00:00,68.9,56.2,29.85,WSW,252,0.0,4.0,64,0.00,,,0.00,0011,Weather View 32 v70,2013-07-02 13:00:00,
2013-07-02 06:05:00,69.0,56.3,29.85,WSW,252,0.0,4.0,64,0.00,,,0.00,0016,Weather View 32 v70,2013-07-02 13:05:00,
2013-07-02 06:10:00,69.1,56.4,29.85,ESE,117,0.0,4.0,64,0.00,,,0.00,0025,Weather View 32 v70,2013-07-02 13:10:00,
2013-07-02 06:20:00,69.3,56.6,29.85,North,4,1.0,4.0,64,0.00,,,0.00,0044,Weather View 32 v70,2013-07-02 13:20:00,
2013-07-02 06:25:00,69.5,56.8,29.85,SSE,162,0.0,4.0,64,0.00,,,0.00,0056,Weather View 32 v70,2013-07-02 13:25:00,
2013-07-02 06:30:00,69.1,56.4,29.85,ESE,117,3.0,4.0,64,0.00,,,0.00,0070,Weather View 32 v70,2013-07-02 13:30:00,
2013-07-02 06:35:00,69.4,56.7,29.85,SSE,162,0.0,4.0,64,0.00,,,0.00,0079,Weather View 32 v70,2013-07-02 13:35:00,
2013-07-02 06:45:00,70.0,57.2,29.86,SSE,162,0.0,4.0,64,0.00,,,0.00,0094,Weather View 32 v70,2013-07-02 13:45:00,
2013-07-02 06:50:00,70.2,57.4,29.86,SE,139,0.0,3.0,64,0.00,,,0.00,0113,Weather View 32 v70,2013-07-02 13:50:00,
2013-07-02 07:00:00,71.2,57.5,29.86,North,4,1.0,3.0,62,0.00,,,0.00,0138,Weather View 32 v70,2013-07-02 14:00:00,
2013-07-02 07:05:00,71.5,57.8,29.86,North,4,0.0,3.0,62,0.00,,,0.00,0074,Weather View 32 v70,2013-07-02 14:05:00,
2013-07-02 07:15:00,71.8,58.0,29.86,SE,139,0.0,3.0,62,0.00,,,0.00,0177,Weather View 32 v70,2013-07-02 14:15:00,
2013-07-02 07:20:00,72.0,57.8,29.86,SSE,162,0.0,3.0,61,0.00,,,0.00,0192,Weather View 32 v70,2013-07-02 14:20:00,
2013-07-02 07:25:00,72.5,58.2,29.87,SE,139,0.0,3.0,61,0.00,,,0.00,0204,Weather View 32 v70,2013-07-02 14:25:00,
2013-07-02 07:30:00,72.7,58.0,29.87,South,184,1.0,3.0,60,0.00,,,0.00,0220,Weather View 32 v70,2013-07-02 14:30:00,
2013-07-02 07:40:00,73.5,58.2,29.86,SE,139,0.0,3.0,59,0.00,,,0.00,0247,Weather View 32 v70,2013-07-02 14:40:00,
2013-07-02 07:45:00,74.1,58.3,29.87,NNW,342,1.0,3.0,58,0.00,,,0.00,0248,Weather View 32 v70,2013-07-02 14:45:00,
2013-07-02 07:50:00,74.6,58.3,29.87,ESE,117,0.0,3.0,57,0.00,,,0.00,0261,Weather View 32 v70,2013-07-02 14:50:00,
2013-07-02 07:55:00,75.1,58.8,29.87,SE,139,0.0,3.0,57,0.00,,,0.00,0284,Weather View 32 v70,2013-07-02 14:55:00,
2013-07-02 08:00:00,75.2,57.9,29.87,East,94,2.0,4.0,55,0.00,,,0.00,0297,Weather View 32 v70,2013-07-02 15:00:00,
2013-07-02 08:10:00,76.0,58.1,29.87,NE,49,2.0,4.0,54,0.00,,,0.00,0318,Weather View 32 v70,2013-07-02 15:10:00,
2013-07-02 08:20:00,76.2,58.3,29.88,SE,139,1.0,4.0,54,0.00,,,0.00,0319,Weather View 32 v70,2013-07-02 15:20:00,
2013-07-02 08:25:00,76.2,57.8,29.88,NNE,27,2.0,4.0,53,0.00,,,0.00,0352,Weather View 32 v70,2013-07-02 15:25:00,
2013-07-02 08:35:00,76.9,58.4,29.88,NE,49,1.0,4.0,53,0.00,,,0.00,0377,Weather View 32 v70,2013-07-02 15:35:00,
2013-07-02 08:40:00,77.3,58.2,29.88,NE,49,3.0,4.0,52,0.00,,,0.00,0390,Weather View 32 v70,2013-07-02 15:40:00,
2013-07-02 08:45:00,77.8,58.2,29.88,ENE,72,3.0,4.0,51,0.00,,,0.00,0403,Weather View 32 v70,2013-07-02 15:45:00,
2013-07-02 08:50:00,78.3,58.6,29.89,SE,139,0.0,4.0,51,0.00,,,0.00,0417,Weather View 32 v70,2013-07-02 15:50:00,
2013-07-02 09:00:00,79.0,58.7,29.89,SE,139,1.0,5.0,50,0.00,,,0.00,0441,Weather View 32 v70,2013-07-02 16:00:00,
2013-07-02 09:05:00,79.2,58.3,29.89,ENE,72,1.0,5.0,49,0.00,,,0.00,0455,Weather View 32 v70,2013-07-02 16:05:00,
2013-07-02 09:10:00,79.6,58.7,29.89,ESE,117,2.0,5.0,49,0.00,,,0.00,0470,Weather View 32 v70,2013-07-02 16:10:00,
2013-07-02 09:15:00,79.7,58.8,29.89,ENE,72,3.0,5.0,49,0.00,,,0.00,0480,Weather View 32 v70,2013-07-02 16:15:00,
2013-07-02 09:25:00,80.0,58.5,29.89,NE,49,2.0,5.0,48,0.00,,,0.00,0505,Weather View 32 v70,2013-07-02 16:25:00,
2013-07-02 09:30:00,80.3,58.8,29.89,ENE,72,3.0,5.0,48,0.00,,,0.00,0516,Weather View 32 v70,2013-07-02 16:30:00,
2013-07-02 09:35:00,80.6,59.0,29.89,NE,49,3.0,6.0,48,0.00,,,0.00,0528,Weather View 32 v70,2013-07-02 16:35:00,
2013-07-02 09:40:00,80.5,58.9,29.89,West,274,3.0,7.0,48,0.00,,,0.00,0540,Weather View 32 v70,2013-07-02 16:40:00,
2013-07-02 09:45:00,81.0,59.4,29.89,NNE,27,3.0,7.0,48,0.00,,,0.00,0556,Weather View 32 v70,2013-07-02 16:45:00,
2013-07-02 09:55:00,82.0,59.1,29.89,ESE,117,2.0,7.0,46,0.00,,,0.00,0584,Weather View 32 v70,2013-07-02 16:55:00,
2013-07-02 10:00:00,81.6,58.1,29.89,ENE,72,4.0,7.0,45,0.00,,,0.00,0598,Weather View 32 v70,2013-07-02 17:00:00,
2013-07-02 10:05:00,82.4,58.8,29.89,NNE,27,1.0,7.0,45,0.00,,,0.00,0612,Weather View 32 v70,2013-07-02 17:05:00,
2013-07-02 10:10:00,83.2,58.9,29.89,ENE,72,1.0,7.0,44,0.00,,,0.00,0623,Weather View 32 v70,2013-07-02 17:10:00,
2013-07-02 10:15:00,84.0,59.0,29.89,North,4,3.0,7.0,43,0.00,,,0.00,0637,Weather View 32 v70,2013-07-02 17:15:00,
2013-07-02 10:25:00,83.9,58.3,29.89,South,184,0.0,7.0,42,0.00,,,0.00,0658,Weather View 32 v70,2013-07-02 17:25:00,
2013-07-02 10:30:00,84.1,58.4,29.89,SE,139,0.0,7.0,42,0.00,,,0.00,0666,Weather View 32 v70,2013-07-02 17:30:00,
2013-07-02 10:35:00,84.4,58.7,29.89,NW,319,4.0,7.0,42,0.00,,,0.00,0675,Weather View 32 v70,2013-07-02 17:35:00,
2013-07-02 10:40:00,84.7,59.0,29.89,NW,319,3.0,7.0,42,0.00,,,0.00,0684,Weather View 32 v70,2013-07-02 17:40:00,
2013-07-02 10:45:00,84.8,58.4,29.89,NE,49,3.0,7.0,41,0.00,,,0.00,0690,Weather View 32 v70,2013-07-02 17:45:00,
2013-07-02 10:55:00,85.9,58.7,29.89,North,4,1.0,7.0,40,0.00,,,0.00,0707,Weather View 32 v70,2013-07-02 17:55:00,
2013-07-02 11:00:00,86.4,58.4,29.89,North,4,3.0,7.0,39,0.00,,,0.00,0713,Weather View 32 v70,2013-07-02 18:00:00,
2013-07-02 11:05:00,86.6,58.6,29.88,NW,319,4.0,7.0,39,0.00,,,0.00,0721,Weather View 32 v70,2013-07-02 18:05:00,
2013-07-02 11:10:00,86.7,58.7,29.88,NNW,342,3.0,7.0,39,0.00,,,0.00,0726,Weather View 32 v70,2013-07-02 18:10:00,
2013-07-02 11:20:00,88.2,58.5,29.88,East,94,1.0,7.0,37,0.00,,,0.00,0737,Weather View 32 v70,2013-07-02 18:20:00,
2013-07-02 11:25:00,89.3,59.5,29.88,North,4,2.0,7.0,37,0.00,,,0.00,0745,Weather View 32 v70,2013-07-02 18:25:00,
2013-07-02 11:30:00,90.2,59.5,29.88,ESE,117,1.0,7.0,36,0.00,,,0.00,0752,Weather View 32 v70,2013-07-02 18:30:00,
2013-07-02 11:35:00,90.0,58.6,29.88,North,4,3.0,7.0,35,0.00,,,0.00,0755,Weather View 32 v70,2013-07-02 18:35:00,
2013-07-02 11:40:00,90.3,58.8,29.88,North,4,4.0,7.0,35,0.00,,,0.00,0761,Weather View 32 v70,2013-07-02 18:40:00,
2013-07-02 11:45:00,90.4,58.9,29.88,NNE,27,3.0,7.0,35,0.00,,,0.00,0765,Weather View 32 v70,2013-07-02 18:45:00,
2013-07-02 11:55:00,91.7,59.2,29.88,NE,49,4.0,7.0,34,0.00,,,0.00,0777,Weather View 32 v70,2013-07-02 18:55:00,
2013-07-02 12:00:00,91.8,58.5,29.88,North,4,3.0,7.0,33,0.00,,,0.00,0785,Weather View 32 v70,2013-07-02 19:00:00,
2013-07-02 12:05:00,92.3,58.9,29.88,ESE,117,1.0,7.0,33,0.00,,,0.00,0797,Weather View 32 v70,2013-07-02 19:05:00,
2013-07-02 12:10:00,92.9,59.4,29.88,SW,229,0.0,7.0,33,0.00,,,0.00,0800,Weather View 32 v70,2013-07-02 19:10:00,
2013-07-02 12:20:00,94.0,59.5,29.87,NNW,342,0.0,7.0,32,0.00,,,0.00,0692,Weather View 32 v70,2013-07-02 19:20:00,
2013-07-02 12:25:00,94.0,58.6,29.87,NW,319,4.0,7.0,31,0.00,,,0.00,0813,Weather View 32 v70,2013-07-02 19:25:00,
2013-07-02 12:30:00,93.7,58.4,29.87,North,4,3.0,7.0,31,0.00,,,0.00,0814,Weather View 32 v70,2013-07-02 19:30:00,
2013-07-02 12:35:00,94.0,58.6,29.87,NW,319,3.0,7.0,31,0.00,,,0.00,0816,Weather View 32 v70,2013-07-02 19:35:00,
2013-07-02 12:40:00,94.8,59.3,29.86,NE,49,3.0,7.0,31,0.00,,,0.00,0821,Weather View 32 v70,2013-07-02 19:40:00,
2013-07-02 12:50:00,96.1,60.4,29.87,NNE,27,3.0,7.0,31,0.00,,,0.00,0827,Weather View 32 v70,2013-07-02 19:50:00,
2013-07-02 12:55:00,96.9,61.1,29.87,North,4,1.0,7.0,31,0.00,,,0.00,0831,Weather View 32 v70,2013-07-02 19:55:00,
2013-07-02 13:00:00,97.2,60.5,29.87,NNW,342,3.0,7.0,30,0.00,,,0.00,0834,Weather View 32 v70,2013-07-02 20:00:00,
2013-07-02 13:05:00,97.2,60.5,29.87,NW,319,3.0,7.0,30,0.00,,,0.00,0837,Weather View 32 v70,2013-07-02 20:05:00,
2013-07-02 13:10:00,96.6,60.0,29.87,NE,49,7.0,7.0,30,0.00,,,0.00,0838,Weather View 32 v70,2013-07-02 20:10:00,
2013-07-02 13:20:00,97.2,60.5,29.87,NW,319,3.0,8.0,30,0.00,,,0.00,0841,Weather View 32 v70,2013-07-02 20:20:00,
2013-07-02 13:25:00,96.9,59.3,29.86,NE,49,3.0,8.0,29,0.00,,,0.00,0846,Weather View 32 v70,2013-07-02 20:25:00,
2013-07-02 13:30:00,96.8,59.2,29.86,NW,319,5.0,8.0,29,0.00,,,0.00,0848,Weather View 32 v70,2013-07-02 20:30:00,
2013-07-02 13:35:00,97.2,59.5,29.86,West,274,1.0,8.0,29,0.00,,,0.00,0850,Weather View 32 v70,2013-07-02 20:35:00,
2013-07-02 13:45:00,98.7,60.8,29.85,ENE,72,4.0,8.0,29,0.00,,,0.00,0835,Weather View 32 v70,2013-07-02 20:45:00,
2013-07-02 13:50:00,98.6,58.7,29.85,ENE,72,4.0,9.0,27,0.00,,,0.00,0849,Weather View 32 v70,2013-07-02 20:50:00,
2013-07-02 13:55:00,98.9,58.9,29.85,NNE,27,4.0,9.0,27,0.00,,,0.00,0843,Weather View 32 v70,2013-07-02 20:55:00,
2013-07-02 14:00:00,99.3,59.3,29.85,NNW,342,2.0,9.0,27,0.00,,,0.00,0836,Weather View 32 v70,2013-07-02 21:00:00,
2013-07-02 14:05:00,99.5,59.5,29.85,ENE,72,3.0,9.0,27,0.00,,,0.00,0835,Weather View 32 v70,2013-07-02 21:05:00,
2013-07-02 14:13:00,100.7,57.2,29.85,South,184,9.0,9.0,24,0.00,,,0.00,0828,Weather View 32 v70,2013-07-02 21:13:00,
2013-07-02 14:20:00,100.1,55.5,29.85,SW,229,6.0,12.0,23,0.00,,,0.00,0813,Weather View 32 v70,2013-07-02 21:20:00,
2013-07-02 14:25:00,99.9,55.3,29.85,SSW,207,7.0,12.0,23,0.00,,,0.00,0805,Weather View 32 v70,2013-07-02 21:25:00,
2013-07-02 14:30:00,99.8,55.2,29.85,SSW,207,8.0,13.0,23,0.00,,,0.00,0800,Weather View 32 v70,2013-07-02 21:30:00,
2013-07-02 14:40:00,99.3,54.8,29.85,SSW,207,8.0,16.0,23,0.00,,,0.00,0796,Weather View 32 v70,2013-07-02 21:40:00,
2013-07-02 14:50:00,99.1,55.8,29.85,SSW,207,6.0,16.0,24,0.00,,,0.00,0645,Weather View 32 v70,2013-07-02 21:50:00,
2013-07-02 14:55:00,99.0,55.7,29.85,West,274,4.0,16.0,24,0.00,,,0.00,0756,Weather View 32 v70,2013-07-02 21:55:00,
2013-07-02 15:00:00,99.1,55.8,29.85,SSW,207,6.0,16.0,24,0.00,,,0.00,0766,Weather View 32 v70,2013-07-02 22:00:00,
2013-07-02 15:10:00,98.4,56.4,29.85,SW,229,7.0,18.0,25,0.00,,,0.00,0753,Weather View 32 v70,2013-07-02 22:10:00,
2013-07-02 15:15:00,98.0,56.0,29.86,SW,229,11.0,18.0,25,0.00,,,0.00,0737,Weather View 32 v70,2013-07-02 22:15:00,
2013-07-02 15:20:00,97.8,55.9,29.85,SSW,207,8.0,18.0,25,0.00,,,0.00,0751,Weather View 32 v70,2013-07-02 22:20:00,
2013-07-02 15:25:00,98.1,56.1,29.85,SSW,207,11.0,18.0,25,0.00,,,0.00,0765,Weather View 32 v70,2013-07-02 22:25:00,
2013-07-02 15:30:00,98.5,56.5,29.85,WSW,252,8.0,18.0,25,0.00,,,0.00,0758,Weather View 32 v70,2013-07-02 22:30:00,
2013-07-02 15:40:00,98.8,56.7,29.85,SSW,207,5.0,18.0,25,0.00,,,0.00,0668,Weather View 32 v70,2013-07-02 22:40:00,
2013-07-02 15:45:00,98.8,56.7,29.85,South,184,11.0,18.0,25,0.00,,,0.00,0514,Weather View 32 v70,2013-07-02 22:45:00,
2013-07-02 15:50:00,98.1,57.2,29.85,WSW,252,7.0,18.0,26,0.00,,,0.00,0487,Weather View 32 v70,2013-07-02 22:50:00,
2013-07-02 15:55:00,97.9,57.0,29.86,SW,229,14.0,18.0,26,0.00,,,0.00,0309,Weather View 32 v70,2013-07-02 22:55:00,
2013-07-02 16:00:00,97.3,57.6,29.86,SSW,207,11.0,18.0,27,0.00,,,0.00,0301,Weather View 32 v70,2013-07-02 23:00:00,
2013-07-02 16:10:00,97.0,58.4,29.85,WSW,252,9.0,18.0,28,0.00,,,0.00,0442,Weather View 32 v70,2013-07-02 23:10:00,
2013-07-02 16:15:00,96.6,58.0,29.85,SSW,207,7.0,18.0,28,0.00,,,0.00,0326,Weather View 32 v70,2013-07-02 23:15:00,
2013-07-02 16:20:00,96.3,58.7,29.85,SW,229,9.0,18.0,29,0.00,,,0.00,0392,Weather View 32 v70,2013-07-02 23:20:00,
2013-07-02 16:25:00,96.0,59.4,29.85,SW,229,12.0,18.0,30,0.00,,,0.00,0508,Weather View 32 v70,2013-07-02 23:25:00,
2013-07-02 16:30:00,95.5,59.9,29.85,WSW,252,11.0,19.0,31,0.00,,,0.00,0506,Weather View 32 v70,2013-07-02 23:30:00,
2013-07-02 16:40:00,96.0,60.4,29.85,SSW,207,10.0,19.0,31,0.00,,,0.00,0583,Weather View 32 v70,2013-07-02 23:40:00,
2013-07-02 16:45:00,95.8,58.3,29.85,SW,229,10.0,19.0,29,0.00,,,0.00,0561,Weather View 32 v70,2013-07-02 23:45:00,
2013-07-02 16:50:00,96.4,58.8,29.85,SE,139,6.0,19.0,29,0.00,,,0.00,0592,Weather View 32 v70,2013-07-02 23:50:00,
2013-07-02 17:00:00,96.5,57.9,29.85,SSW,207,7.0,19.0,28,0.00,,,0.00,0610,Weather View 32 v70,2013-07-03 00:00:00,
2013-07-02 17:10:00,96.2,57.7,29.84,SSW,207,8.0,19.0,28,0.00,,,0.00,0504,Weather View 32 v70,2013-07-03 00:10:00,
2013-07-02 17:15:00,96.0,57.5,29.85,SSW,207,7.0,19.0,28,0.00,,,0.00,0513,Weather View 32 v70,2013-07-03 00:15:00,
2013-07-02 17:20:00,95.7,57.2,29.84,WSW,252,12.0,19.0,28,0.00,,,0.00,0522,Weather View 32 v70,2013-07-03 00:20:00,
2013-07-02 17:25:00,95.4,57.0,29.84,SW,229,13.0,19.0,28,0.00,,,0.00,0520,Weather View 32 v70,2013-07-03 00:25:00,
2013-07-02 17:35:00,94.5,56.2,29.84,SW,229,8.0,20.0,28,0.00,,,0.00,0482,Weather View 32 v70,2013-07-03 00:35:00,
2013-07-02 17:40:00,94.4,56.1,29.84,West,274,12.0,20.0,28,0.00,,,0.00,0464,Weather View 32 v70,2013-07-03 00:40:00,
2013-07-02 17:45:00,94.0,56.8,29.84,SW,229,11.0,20.0,29,0.00,,,0.00,0451,Weather View 32 v70,2013-07-03 00:45:00,
2013-07-02 17:50:00,93.6,56.4,29.84,WSW,252,12.0,21.0,29,0.00,,,0.00,0434,Weather View 32 v70,2013-07-03 00:50:00,
2013-07-02 17:55:00,93.6,57.4,29.84,SSW,207,7.0,21.0,30,0.00,,,0.00,0421,Weather View 32 v70,2013-07-03 00:55:00,
2013-07-02 18:05:00,93.2,57.0,29.84,South,184,6.0,22.0,30,0.00,,,0.00,0393,Weather View 32 v70,2013-07-03 01:05:00,
2013-07-02 18:10:00,92.7,56.6,29.84,SW,229,12.0,22.0,30,0.00,,,0.00,0380,Weather View 32 v70,2013-07-03 01:10:00,
2013-07-02 18:15:00,92.2,57.1,29.84,South,184,11.0,22.0,31,0.00,,,0.00,0366,Weather View 32 v70,2013-07-03 01:15:00,
2013-07-02 18:20:00,91.9,56.8,29.84,SSW,207,8.0,22.0,31,0.00,,,0.00,0351,Weather View 32 v70,2013-07-03 01:20:00,
2013-07-02 18:25:00,91.6,56.6,29.84,SSW,207,13.0,22.0,31,0.00,,,0.00,0337,Weather View 32 v70,2013-07-03 01:25:00,
2013-07-02 18:30:00,91.0,56.9,29.84,SW,229,10.0,22.0,32,0.00,,,0.00,0323,Weather View 32 v70,2013-07-03 01:30:00,
2013-07-02 18:35:00,90.6,56.6,29.84,SSW,207,6.0,22.0,32,0.00,,,0.00,0307,Weather View 32 v70,2013-07-03 01:35:00,
2013-07-02 18:40:00,90.2,57.1,29.84,SSW,207,9.0,22.0,33,0.00,,,0.00,0293,Weather View 32 v70,2013-07-03 01:40:00,
2013-07-02 18:55:00,88.4,56.4,29.85,NW,319,3.0,22.0,34,0.00,,,0.00,0246,Weather View 32 v70,2013-07-03 01:55:00,
2013-07-02 19:00:00,88.7,56.6,29.85,West,274,3.0,22.0,34,0.00,,,0.00,0231,Weather View 32 v70,2013-07-03 02:00:00,
2013-07-02 19:10:00,88.8,57.5,29.85,West,274,4.0,22.0,35,0.00,,,0.00,0203,Weather View 32 v70,2013-07-03 02:10:00,
2013-07-02 19:15:00,88.8,56.7,29.85,SSW,207,12.0,22.0,34,0.00,,,0.00,0188,Weather View 32 v70,2013-07-03 02:15:00,
2013-07-02 19:20:00,88.3,56.3,29.85,SE,139,2.0,22.0,34,0.00,,,0.00,0174,Weather View 32 v70,2013-07-03 02:20:00,
2013-07-02 19:25:00,87.1,56.0,29.86,SE,139,3.0,22.0,35,0.00,,,0.00,0160,Weather View 32 v70,2013-07-03 02:25:00,
2013-07-02 19:30:00,86.9,56.6,29.86,ESE,117,2.0,22.0,36,0.00,,,0.00,0145,Weather View 32 v70,2013-07-03 02:30:00,
2013-07-02 19:35:00,86.3,56.1,29.86,NW,319,3.0,22.0,36,0.00,,,0.00,0130,Weather View 32 v70,2013-07-03 02:35:00,
2013-07-02 19:40:00,85.2,55.9,29.86,East,94,1.0,16.0,37,0.00,,,0.00,0096,Weather View 32 v70,2013-07-03 02:40:00,
2013-07-02 19:45:00,83.8,55.4,29.86,North,4,1.0,14.0,38,0.00,,,0.00,0035,Weather View 32 v70,2013-07-03 02:45:00,
2013-07-02 19:50:00,82.8,55.2,29.87,West,274,2.0,13.0,39,0.00,,,0.00,0031,Weather View 32 v70,2013-07-03 02:50:00,
2013-07-02 19:55:00,81.7,54.9,29.87,WSW,252,5.0,13.0,40,0.00,,,0.00,0028,Weather View 32 v70,2013-07-03 02:55:00,
2013-07-02 20:00:00,81.0,55.0,29.87,NNW,342,1.0,13.0,41,0.00,,,0.00,0025,Weather View 32 v70,2013-07-03 03:00:00,
2013-07-02 20:05:00,80.1,54.9,29.87,ENE,72,2.0,13.0,42,0.00,,,0.00,0022,Weather View 32 v70,2013-07-03 03:05:00,
2013-07-02 20:15:00,79.4,55.5,29.87,ESE,117,0.0,13.0,44,0.00,,,0.00,0016,Weather View 32 v70,2013-07-03 03:15:00,
2013-07-02 20:20:00,78.7,54.9,29.88,ESE,117,0.0,7.0,44,0.00,,,0.00,0012,Weather View 32 v70,2013-07-03 03:20:00,
2013-07-02 20:25:00,77.9,54.8,29.88,NW,319,1.0,7.0,45,0.00,,,0.00,0010,Weather View 32 v70,2013-07-03 03:25:00,
2013-07-02 20:30:00,77.6,55.1,29.87,SE,139,0.0,7.0,46,0.00,,,0.00,0007,Weather View 32 v70,2013-07-03 03:30:00,
2013-07-02 20:35:00,76.7,54.9,29.87,ESE,117,1.0,7.0,47,0.00,,,0.00,0005,Weather View 32 v70,2013-07-03 03:35:00,
2013-07-02 21:00:00,74.8,54.3,29.88,SE,139,0.0,5.0,49,0.00,,,0.00,0001,Weather View 32 v70,2013-07-03 04:00:00,
2013-07-02 21:05:00,74.5,54.6,29.88,SSW,207,0.0,5.0,50,0.00,,,0.00,0001,Weather View 32 v70,2013-07-03 04:05:00,
2013-07-02 21:10:00,74.3,54.9,29.88,ESE,117,0.0,5.0,51,0.00,,,0.00,0001,Weather View 32 v70,2013-07-03 04:10:00,
2013-07-02 21:15:00,74.0,54.7,29.88,NNE,27,0.0,4.0,51,0.00,,,0.00,0002,Weather View 32 v70,2013-07-03 04:15:00,
2013-07-02 21:25:00,73.1,54.4,29.88,NE,49,1.0,4.0,52,0.00,,,0.00,0001,Weather View 32 v70,2013-07-03 04:25:00,
2013-07-02 21:30:00,72.8,54.6,29.88,South,184,0.0,4.0,53,0.00,,,0.00,0001,Weather View 32 v70,2013-07-03 04:30:00,
2013-07-02 21:35:00,72.6,54.4,29.89,South,184,0.0,4.0,53,0.00,,,0.00,0001,Weather View 32 v70,2013-07-03 04:35:00,
2013-07-02 21:40:00,72.3,54.7,29.89,SE,139,0.0,4.0,54,0.00,,,0.00,0001,Weather View 32 v70,2013-07-03 04:40:00,
2013-07-02 21:45:00,71.9,54.3,29.89,ESE,117,0.0,4.0,54,0.00,,,0.00,0002,Weather View 32 v70,2013-07-03 04:45:00,
2013-07-02 21:55:00,70.6,53.6,29.89,ESE,117,1.0,4.0,55,0.00,,,0.00,0002,Weather View 32 v70,2013-07-03 04:55:00,
2013-07-02 22:00:00,70.4,53.9,29.89,SE,139,0.0,3.0,56,0.00,,,0.00,0001,Weather View 32 v70,2013-07-03 05:00:00,
2013-07-02 22:05:00,70.0,53.5,29.90,SE,139,1.0,3.0,56,0.00,,,0.00,0002,Weather View 32 v70,2013-07-03 05:05:00,
2013-07-02 22:10:00,69.6,53.6,29.90,SE,139,1.0,3.0,57,0.00,,,0.00,0002,Weather View 32 v70,2013-07-03 05:10:00,
2013-07-02 22:15:00,69.5,54.0,29.90,SE,139,1.0,3.0,58,0.00,,,0.00,0001,Weather View 32 v70,2013-07-03 05:15:00,
2013-07-02 22:25:00,69.2,54.2,29.90,ESE,117,0.0,4.0,59,0.00,,,0.00,0001,Weather View 32 v70,2013-07-03 05:25:00,
2013-07-02 22:30:00,69.0,54.0,29.89,ESE,117,0.0,4.0,59,0.00,,,0.00,0001,Weather View 32 v70,2013-07-03 05:30:00,
2013-07-02 22:35:00,68.7,54.2,29.90,ESE,117,0.0,4.0,60,0.00,,,0.00,0001,Weather View 32 v70,2013-07-03 05:35:00,
2013-07-02 22:40:00,68.6,54.1,29.90,SE,139,0.0,4.0,60,0.00,,,0.00,0002,Weather View 32 v70,2013-07-03 05:40:00,
2013-07-02 22:45:00,68.2,53.7,29.90,ESE,117,0.0,4.0,60,0.00,,,0.00,0001,Weather View 32 v70,2013-07-03 05:45:00,
2013-07-02 22:55:00,67.8,53.8,29.90,ESE,117,0.0,4.0,61,0.00,,,0.00,0001,Weather View 32 v70,2013-07-03 05:55:00,
2013-07-02 23:00:00,67.7,54.2,29.91,SE,139,0.0,4.0,62,0.00,,,0.00,0001,Weather View 32 v70,2013-07-03 06:00:00,
2013-07-02 23:05:00,67.5,54.0,29.91,ESE,117,0.0,4.0,62,0.00,,,0.00,0001,Weather View 32 v70,2013-07-03 06:05:00,
2013-07-02 23:10:00,67.4,53.9,29.91,SSE,162,0.0,4.0,62,0.00,,,0.00,0002,Weather View 32 v70,2013-07-03 06:10:00,
2013-07-02 23:15:00,67.1,54.0,29.91,SSW,207,0.0,4.0,63,0.00,,,0.00,0001,Weather View 32 v70,2013-07-03 06:15:00,
2013-07-02 23:18:00,67.1,54.0,29.91,SSW,207,0.0,4.0,63,0.00,,,0.00,0001,Weather View 32 v70,2013-07-03 06:18:00,
2013-07-02 23:30:00,66.8,54.2,29.91,NE,49,0.0,1.0,64,0.00,,,0.00,0002,Weather View 32 v70,2013-07-03 06:30:00,
2013-07-02 23:35:00,66.6,54.4,29.91,ESE,117,0.0,1.0,65,0.00,,,0.00,0001,Weather View 32 v70,2013-07-03 06:35:00,
2013-07-02 23:40:00,66.2,54.1,29.91,ESE,117,0.0,1.0,65,0.00,,,0.00,0001,Weather View 32 v70,2013-07-03 06:40:00,
2013-07-02 23:50:00,65.9,54.2,29.91,SSE,162,0.0,3.0,66,0.00,,,0.00,0001,Weather View 32 v70,2013-07-03 06:50:00,
2013-07-02 23:55:00,66.0,54.7,29.91,SE,139,0.0,3.0,67,0.00,,,0.00,0001,Weather View 32 v70,2013-07-03 06:55:00,